Total_Precipitation_Accumulation
0.00 0.00 0.00 0.00 0.00 0.00 0.00 0.00 0.00 0.00 0.00 0.00 0.00 0.00 0.00 0.00 0.00 0.00 0.00 0.00 0.00 0.00 0.00 0.00 0.00 0.00 0.00 0.00 0.00 0.00 0.00 0.00 0.00 0.00 0.01 0.01 0.01 0.00 0.00 0.02 0.04 0.02 0.07
0.00 0.00 0.00 0.00 0.00 0.00 0.00 0.00 0.00 0.00 0.00 0.00 0.00 0.00 0.00 0.00 0.00 0.00 0.00 0.00 0.00 0.00 0.00 0.00 0.00 0.00 0.00 0.00 0.00 0.00 0.00 0.00 0.00 0.00 0.01 0.01 0.01 0.01 0.01 0.02 0.02 0.02 0.05
0.00 0.00 0.00 0.00 0.00 0.00 0.00 0.00 0.00 0.00 0.00 0.00 0.00 0.00 0.00 0.00 0.00 0.00 0.00 0.00 0.00 0.00 0.00 0.00 0.00 0.00 0.00 0.00 0.00 0.00 0.00 0.00 0.00 0.00 0.00 0.00 0.01 0.01 0.00 0.01 0.02 0.04 0.04
0.00 0.00 0.00 0.00 0.00 0.00 0.00 0.00 0.00 0.00 0.00 0.00 0.00 0.00 0.00 0.00 0.00 0.00 0.00 0.00 0.00 0.00 0.00 0.00 0.00 0.00 0.00 0.00 0.00 0.00 0.00 0.00 0.00 0.00 0.00 0.00 0.00 0.01 0.00 0.01 0.02 0.04 0.06
0.00 0.00 0.00 0.00 0.00 0.00 0.00 0.00 0.00 0.00 0.00 0.00 0.00 0.00 0.00 0.00 0.00 0.00 0.00 0.00 0.00 0.00 0.00 0.00 0.00 0.00 0.00 0.00 0.00 0.00 0.00 0.00 0.00 0.00 0.00 0.00 0.00 0.01 0.01 0.01 0.01 0.03 0.08
0.00 0.00 0.00 0.00 0.00 0.00 0.00 0.00 0.00 0.00 0.00 0.00 0.00 0.00 0.00 0.00 0.00 0.00 0.00 0.00 0.00 0.00 0.00 0.00 0.00 0.00 0.00 0.00 0.00 0.00 0.00 0.00 0.00 0.00 0.00 0.00 0.00 0.01 0.01 0.02 0.03 0.03 0.03
0.00 0.00 0.00 0.00 0.00 0.00 0.00 0.00 0.00 0.00 0.00 0.00 0.00 0.00 0.00 0.00 0.00 0.00 0.00 0.00 0.00 0.00 0.00 0.00 0.00 0.00 0.00 0.00 0.00 0.00 0.00 0.00 0.00 0.00 0.00 0.00 0.01 0.01 0.02 0.02 0.03 0.01 0.01
0.00 0.00 0.00 0.00 0.00 0.00 0.00 0.00 0.00 0.00 0.00 0.00 0.00 0.00 0.00 0.00 0.00 0.00 0.00 0.00 0.00 0.00 0.00 0.00 0.00 0.00 0.00 0.00 0.00 0.00 0.00 0.00 0.00 0.00 0.00 0.01 0.02 0.03 0.04 0.03 0.03 0.01 0.00
0.00 0.00 0.00 0.00 0.00 0.00 0.00 0.00 0.00 0.00 0.00 0.00 0.00 0.00 0.00 0.00 0.00 0.00 0.00 0.00 0.00 0.00 0.00 0.00 0.00 0.00 0.00 0.00 0.00 0.00 0.00 0.00 0.00 0.00 0.00 0.01 0.02 0.03 0.05 0.03 0.01 0.01 0.01
0.00 0.00 0.00 0.00 0.00 0.00 0.00 0.00 0.00 0.00 0.00 0.00 0.00 0.00 0.00 0.00 0.00 0.00 0.00 0.00 0.00 0.00 0.00 0.00 0.00 0.00 0.00 0.00 0.00 0.00 0.00 0.00 0.00 0.01 0.00 0.01 0.02 0.02 0.04 0.06 0.03 0.01 0.01
0.00 0.00 0.00 0.00 0.00 0.00 0.00 0.01 0.00 0.00 0.00 0.00 0.00 0.00 0.00 0.00 0.00 0.00 0.01 0.05 0.06 0.03 0.01 0.00 0.00 0.00 0.01 0.00 0.00 0.00 0.00 0.00 0.00 0.01 0.00 0.00 0.02 0.02 0.04 0.04 0.03 0.00 0.00
0.02 0.03 0.05 0.07 0.10 0.05 0.04 0.02 0.01 0.00 0.00 0.00 0.00 0.01 0.01 0.01 0.01 0.03 0.07 0.10 0.10 0.05 0.02 0.01 0.00 0.00 0.00 0.00 0.00 0.00 0.00 0.00 0.00 0.00 0.00 0.00 0.02 0.03 0.03 0.01 0.02 0.01 0.00
0.01 0.03 0.10 0.15 0.16 0.15 0.16 0.14 0.11 0.06 0.05 0.08 0.08 0.05 0.04 0.02 0.04 0.08 0.08 0.06 0.07 0.05 0.02 0.02 0.00 0.00 0.00 0.00 0.00 0.00 0.00 0.00 0.00 0.00 0.00 0.00 0.02 0.02 0.03 0.01 0.01 0.01 0.01
0.00 0.00 0.02 0.08 0.13 0.10 0.12 0.20 0.22 0.20 0.17 0.16 0.09 0.06 0.07 0.05 0.06 0.16 0.14 0.11 0.12 0.12 0.08 0.04 0.02 0.00 0.00 0.00 0.00 0.00 0.01 0.01 0.00 0.02 0.00 0.01 0.02 0.02 0.04 0.02 0.01 0.01 0.01
0.00 0.00 0.00 0.01 0.07 0.11 0.12 0.14 0.13 0.12 0.11 0.09 0.10 0.12 0.10 0.20 0.18 0.27 0.31 0.32 0.27 0.29 0.24 0.20 0.09 0.05 0.02 0.02 0.02 0.03 0.05 0.02 0.00 0.03 0.01 0.00 0.01 0.01 0.02 0.04 0.02 0.02 0.01
0.00 0.00 0.00 0.00 0.00 0.01 0.03 0.06 0.08 0.15 0.18 0.16 0.13 0.25 0.41 0.44 0.58 0.69 0.73 0.64 0.48 0.40 0.62 0.55 0.38 0.27 0.19 0.18 0.20 0.20 0.17 0.13 0.05 0.09 0.02 0.01 0.01 0.01 0.02 0.05 0.05 0.04 0.02
0.00 0.00 0.00 0.00 0.00 0.00 0.01 0.01 0.02 0.03 0.09 0.13 0.16 0.20 0.36 0.57 0.67 0.81 0.78 0.77 0.73 0.75 0.66 0.84 0.71 0.64 0.61 0.44 0.41 0.44 0.29 0.25 0.21 0.19 0.06 0.02 0.01 0.02 0.01 0.02 0.03 0.04 0.04
0.00 0.00 0.00 0.00 0.00 0.00 0.01 0.02 0.03 0.04 0.06 0.10 0.13 0.21 0.21 0.26 0.56 0.75 0.77 0.78 1.14 1.54 1.74 1.58 1.46 1.15 0.83 0.71 0.62 0.43 0.27 0.23 0.18 0.16 0.11 0.03 0.02 0.02 0.01 0.02 0.02 0.03 0.03
0.00 0.00 0.00 0.00 0.00 0.01 0.02 0.05 0.08 0.07 0.08 0.14 0.22 0.23 0.27 0.27 0.33 0.55 0.71 0.97 1.17 1.78 1.93 1.65 1.26 1.12 0.96 0.84 0.80 0.65 0.48 0.28 0.23 0.18 0.12 0.07 0.05 0.03 0.01 0.01 0.02 0.03 0.03
0.00 0.00 0.00 0.00 0.01 0.02 0.05 0.08 0.10 0.09 0.11 0.16 0.23 0.33 0.28 0.30 0.43 0.56 0.53 0.59 0.52 0.62 1.02 1.08 1.35 1.43 1.26 1.19 1.14 1.06 0.90 0.64 0.45 0.31 0.25 0.15 0.07 0.05 0.03 0.01 0.01 0.02 0.03
0.00 0.00 0.00 0.00 0.01 0.04 0.08 0.10 0.13 0.12 0.13 0.20 0.24 0.30 0.32 0.31 0.41 0.52 0.62 0.56 0.31 0.28 0.35 0.46 0.65 0.85 1.02 1.04 1.12 1.18 0.97 0.74 0.51 0.33 0.26 0.17 0.09 0.05 0.04 0.02 0.01 0.01 0.02
0.00 0.00 0.00 0.00 0.00 0.02 0.06 0.11 0.15 0.15 0.21 0.25 0.32 0.36 0.36 0.31 0.32 0.40 0.60 0.61 0.33 0.28 0.41 0.46 0.50 0.63 0.87 0.99 1.08 1.32 1.50 1.44 1.09 0.67 0.42 0.29 0.16 0.09 0.05 0.04 0.02 0.01 0.01
0.00 0.00 0.00 0.00 0.00 0.00 0.01 0.05 0.09 0.13 0.18 0.21 0.28 0.38 0.44 0.47 0.46 0.52 0.59 0.58 0.42 0.42 0.51 0.63 0.71 0.72 0.80 1.04 1.18 1.22 1.35 1.14 0.90 0.83 0.70 0.48 0.38 0.28 0.15 0.08 0.06 0.04 0.02
0.00 0.00 0.00 0.00 0.00 0.00 0.00 0.00 0.01 0.04 0.05 0.07 0.09 0.14 0.19 0.27 0.42 0.55 0.72 0.76 0.72 0.71 0.97 1.26 1.43 1.42 1.54 1.81 2.24 2.21 2.07 1.85 1.58 1.55 1.46 1.41 1.37 1.08 0.71 0.50 0.33 0.15 0.07
0.00 0.00 0.00 0.00 0.00 0.00 0.00 0.00 0.00 0.01 0.01 0.01 0.03 0.05 0.08 0.11 0.16 0.32 0.59 1.02 1.23 1.29 1.30 1.41 1.79 2.08 1.95 1.77 2.08 2.23 2.39 2.38 2.12 1.81 1.66 1.74 1.93 1.77 1.22 0.86 0.80 0.67 0.44
0.00 0.00 0.00 0.00 0.00 0.00 0.00 0.00 0.00 0.00 0.00 0.01 0.03 0.03 0.03 0.03 0.06 0.12 0.26 0.41 0.62 0.79 0.91 1.05 1.25 1.47 1.47 1.44 1.72 1.91 1.88 1.78 1.69 1.52 1.46 1.39 1.54 1.63 1.61 1.33 1.00 0.84 0.73